Regional Weather Roundup
Issued by NWS

Home | Current Version | Previous Version | Graphics & Text | Print | Product List | Glossary On
Versions: 1 2 3 4 5 6 7 8 9 10 11 12 13 14 15 16 17 18 19 20 21 22 23 24 25 26 27 28 29 30 31 32 33 34 35 36 37 38 39 40 41 42 43 44 45 46 47 48 49 50
374
ASUS43 KIND 071109
RWRIN

WEATHER ROUNDUP FOR INDIANA
NATIONAL WEATHER SERVICE INDIANAPOLIS IN
600 AM EST SUN FEB 07 2016

NOTE: "FAIR" INDICATES FEW OR NO CLOUDS BELOW 12,000 FEET WITH NO
SIGNIFICANT WEATHER AND/OR OBSTRUCTIONS TO VISIBILITY.

* - STATION DOES NOT REPORT WEATHER SUCH AS PRECIPITATION OR FOG.

+ - STATION NOT QUALITY CONTROLLED BY THE NATIONAL WEATHER SERVICE.
    USE DATA WITH CAUTION...ESPECIALLY DEWPOINT AND RELATIVE
    HUMIDITY OBSERVATIONS.

INZ001>003-010>013-019-020-071200-
NORTHWEST INDIANA

CITY           SKY/WX    TMP DP  RH WIND       PRES   REMARKS
GARY /AIRPORT/ PTCLDY    39  28  65 S13       29.94F
LA PORTE +     PTCLDY    35  32  89 S6        29.96F WCI  30
MICHIGAN CITY+ PTCLDY    36  30  80 S10       29.95F
MONTICELLO +   CLOUDY    34  23  64 S9        30.02F WCI  27
RENSSELAER +   CLOUDY    36  28  75 S10       29.99F
VALPARAISO     CLOUDY    35  29  78 S7        29.96F WCI  29

$$

LMZ046-743>745-071200-
SOUTHERN LAKE MICHIGAN

STATION/POSITION TIME  TEMP    WIND        PRES    WAVE
                       AIR SEA DIR/SP/G            HT
                 (UTC) (F)     (DEG/KT/KT) (MB)    (FT)
BURNS HARBOR     1000   38     200/ 14/ 18 1015.2F
MICHIGAN CITY    1000   38     150/ 14/ 17   N/A

$$

INZ004-005-014>016-021>024-071200-
NORTH CENTRAL INDIANA

CITY           SKY/WX    TMP DP  RH WIND       PRES   REMARKS
GOSHEN         CLOUDY    35  27  72 S9        29.99F WCI  28
LOGANSPORT +   MOCLDY    32  25  74 SW9       30.03F WCI  24
PERU/GRISSOM   PTCLDY    35  26  71 SW13      30.01F WCI  26
ROCHESTER +    CLOUDY    36  25  64 S9        30.01F
SOUTH BEND     CLOUDY    34  27  75 SW8       29.97F WCI  27
WARSAW +       PTCLDY    34  27  75 S6        30.01F WCI  29

$$

INZ006>009-017-018-025>027-071200-
NORTHEAST INDIANA

CITY           SKY/WX    TMP DP  RH WIND       PRES   REMARKS
AUBURN +       PTCLDY    32  27  80 S5        30.03F WCI  27
FORT WAYNE     CLOUDY    32  26  78 SW12      30.04F WCI  23
HUNTINGTON +   CLOUDY    34  22  62 SW8       30.03F WCI  27

$$

INZ028-029-035-036-043>045-051>053-071200-
WEST CENTRAL INDIANA

CITY           SKY/WX    TMP DP  RH WIND       PRES   REMARKS
GREENCASTLE +  PTCLDY    34  19  55 CALM      30.08F
LAFAYETTE      PTCLDY    34  25  69 SW5       30.03F WCI  30
TERRE HAUTE    CLOUDY    36  23  59 SW7       30.09F

$$

INZ030>032-037>040-046>048-054>057-064-065-071200-
CENTRAL INDIANA

CITY           SKY/WX    TMP DP  RH WIND       PRES   REMARKS
FISHERS *+     CLEAR     32  27  80 SW5       30.07F WCI  27
FRANKFORT +    PTCLDY    33  20  59 S8        30.06F WCI  26
INDIANAPOLIS   CLEAR     34  23  64 SW10      30.07F WCI  26
-EAGLE CREEK   CLEAR     36  23  59 SW6       30.07F
KOKOMO *+        N/A     36  25  64 SW12      30.04F
MARION +       CLEAR     32  19  59 SW9       30.05F WCI  24
MT COMFORT *+  CLEAR     32  23  69 SW6       30.08F WCI  26
SHELBYVILLE    CLEAR     33  24  69 S8        30.09F WCI  26
ZIONSVILLE +   CLOUDY    34  24  67 SW9       30.06F WCI  27

$$

INZ033-034-041-042-049-050-058-059-071200-
EAST CENTRAL INDIANA

CITY           SKY/WX    TMP DP  RH WIND       PRES   REMARKS
MUNCIE         CLEAR     38  23  55 SW8       30.06F

$$

INZ060-061-067>069-081>083-085>088-071200-
SOUTHWEST INDIANA

CITY           SKY/WX    TMP DP  RH WIND       PRES   REMARKS
EVANSVILLE     CLEAR     36  23  59 SW3       30.16F
HUNTINGBURG *+ CLEAR     34  21  60 S6        30.15F WCI  29
WASHINGTON +   CLEAR     36  23  57 SW9       30.12F

$$

INZ062-063-066-070>080-084-089>092-071200-
SOUTH CENTRAL AND SOUTHEAST INDIANA

CITY           SKY/WX    TMP DP  RH WIND       PRES   REMARKS
BEDFORD +      CLEAR     37  23  56 SW6       30.12F
BLOOMINGTON    CLEAR     38  22  52 W8        30.10F
MADISON *+     CLEAR     28  25  86 CALM      30.15F
NORTH VERNON + CLEAR     30  23  74 CALM      30.13F
SEYMOUR +      CLEAR     37  23  56 W9        30.12F

$$





USA.gov is the U.S. government's official web portal to all federal, state and local government web resources and services.